TimeCDT,TemperatureF,Dew PointF,Humidity,Sea Level PressureIn,VisibilityMPH,Wind Direction,Wind SpeedMPH,Gust SpeedMPH,PrecipitationIn,Events,Conditions,WindDirDegrees,DateUTC
12:15 AM,45.5,34.2,65,29.97,10.0,East,11.5,17.3,N/A,,Overcast,100,2014-04-24 05:15:00
12:35 AM,44.8,34.9,68,29.99,10.0,East,8.1,16.1,N/A,,Drizzle,90,2014-04-24 05:35:00
12:55 AM,44.4,35.1,70,30.01,10.0,East,6.9,-,0.01,Rain,Light Rain,80,2014-04-24 05:55:00
1:15 AM,44.1,35.1,71,30.00,10.0,East,9.2,16.1,N/A,Rain,Light Rain,100,2014-04-24 06:15:00
1:35 AM,43.0,35.8,76,29.99,10.0,ESE,10.4,-,0.01,Rain,Rain,110,2014-04-24 06:35:00
1:55 AM,41.9,36.3,81,29.98,10.0,ESE,9.2,-,0.04,Rain,Rain,110,2014-04-24 06:55:00
2:15 AM,41.4,35.8,81,29.97,10.0,East,11.5,-,0.04,Rain,Light Rain,90,2014-04-24 07:15:00
2:35 AM,41.0,35.6,81,29.95,10.0,East,11.5,18.4,0.06,Rain,Light Rain,90,2014-04-24 07:35:00
2:55 AM,40.6,35.4,82,29.94,10.0,East,10.4,-,0.07,Rain,Light Rain,100,2014-04-24 07:55:00
3:15 AM,40.6,35.1,80,29.94,10.0,East,10.4,-,0.01,Rain,Light Rain,100,2014-04-24 08:15:00
3:35 AM,40.6,35.1,80,29.93,10.0,East,8.1,-,0.01,Rain,Light Rain,100,2014-04-24 08:35:00
3:55 AM,40.6,35.1,80,29.91,10.0,East,13.8,17.3,0.03,Rain,Light Rain,90,2014-04-24 08:55:00
4:15 AM,40.8,35.2,80,29.90,10.0,East,11.5,-,N/A,Rain,Light Rain,100,2014-04-24 09:15:00
4:35 AM,41.0,35.1,79,29.91,10.0,East,9.2,-,N/A,,Light Drizzle,100,2014-04-24 09:35:00
4:55 AM,40.6,35.1,80,29.90,10.0,East,11.5,17.3,N/A,,Drizzle,100,2014-04-24 09:55:00
5:15 AM,40.6,35.2,81,29.88,10.0,East,13.8,-,0.01,Rain,Rain,90,2014-04-24 10:15:00
5:35 AM,41.0,35.2,80,29.86,10.0,East,11.5,-,0.01,,Overcast,100,2014-04-24 10:35:00
5:55 AM,41.0,34.7,78,29.86,10.0,East,11.5,18.4,0.01,,Light Drizzle,100,2014-04-24 10:55:00
6:15 AM,41.0,34.7,78,29.85,10.0,East,12.7,17.3,N/A,,Overcast,100,2014-04-24 11:15:00
6:35 AM,41.4,34.7,77,29.85,10.0,East,10.4,16.1,N/A,,Overcast,100,2014-04-24 11:35:00
6:55 AM,42.4,34.9,75,29.86,10.0,East,9.2,16.1,N/A,,Overcast,100,2014-04-24 11:55:00
7:15 AM,42.8,35.1,74,29.84,10.0,East,10.4,-,N/A,,Overcast,90,2014-04-24 12:15:00
7:35 AM,43.2,35.2,74,29.84,10.0,East,13.8,19.6,N/A,,Overcast,100,2014-04-24 12:35:00
7:55 AM,42.8,36.1,77,29.84,10.0,East,11.5,-,0.01,Rain,Light Rain,100,2014-04-24 12:55:00
8:15 AM,43.7,36.1,75,29.83,10.0,East,9.2,20.7,0.01,,Overcast,100,2014-04-24 13:15:00
8:35 AM,44.6,35.8,71,29.82,10.0,East,16.1,21.9,0.01,,Overcast,100,2014-04-24 13:35:00
8:55 AM,44.8,35.8,71,29.81,10.0,East,15.0,19.6,0.01,,Overcast,100,2014-04-24 13:55:00
9:15 AM,45.1,35.4,69,29.79,10.0,East,15.0,20.7,N/A,,Overcast,100,2014-04-24 14:15:00
9:35 AM,45.5,35.8,69,29.80,10.0,East,10.4,16.1,N/A,Rain,Light Rain,100,2014-04-24 14:35:00
9:55 AM,45.3,37.6,74,29.77,10.0,East,10.4,-,0.01,Rain,Light Rain,100,2014-04-24 14:55:00
10:15 AM,45.7,37.4,73,29.76,10.0,ESE,12.7,16.1,0.01,Rain,Light Rain,110,2014-04-24 15:15:00
10:35 AM,45.5,37.9,75,29.76,10.0,ESE,11.5,-,0.01,,Overcast,110,2014-04-24 15:35:00
10:55 AM,46.2,38.5,74,29.77,10.0,East,5.8,-,0.01,,Overcast,100,2014-04-24 15:55:00
11:15 AM,46.4,39.0,75,29.76,10.0,East,9.2,-,N/A,Rain,Rain,100,2014-04-24 16:15:00
11:35 AM,46.0,40.1,80,29.78,4.0,ESE,3.5,-,0.06,Rain,Rain,110,2014-04-24 16:35:00
11:55 AM,46.8,41.9,83,29.75,10.0,East,4.6,-,0.07,Rain,Light Rain,90,2014-04-24 16:55:00
12:15 PM,48.7,43.5,82,29.73,10.0,East,8.1,-,N/A,Rain,Light Rain,100,2014-04-24 17:15:00
12:35 PM,49.8,44.4,82,29.72,7.0,ESE,6.9,-,0.01,Rain,Light Rain,110,2014-04-24 17:35:00
12:55 PM,51.6,44.4,76,29.70,10.0,ESE,9.2,-,0.01,,Overcast,110,2014-04-24 17:55:00
1:15 PM,53.1,43.2,69,29.70,10.0,SE,12.7,20.7,N/A,Rain,Light Rain,130,2014-04-24 18:15:00
1:35 PM,53.1,44.4,72,29.70,10.0,SE,11.5,18.4,N/A,,Overcast,130,2014-04-24 18:35:00
1:55 PM,52.7,44.6,74,29.70,10.0,SE,11.5,19.6,N/A,,Overcast,140,2014-04-24 18:55:00
2:15 PM,52.3,45.0,76,29.69,10.0,SE,10.4,-,N/A,,Overcast,130,2014-04-24 19:15:00
2:35 PM,51.8,45.9,80,29.68,10.0,ESE,11.5,-,N/A,,Light Drizzle,120,2014-04-24 19:35:00
2:55 PM,51.8,46.0,81,29.67,10.0,SE,10.4,-,N/A,,Light Drizzle,130,2014-04-24 19:55:00
3:15 PM,52.0,46.6,82,29.65,10.0,ESE,5.8,-,N/A,,Overcast,120,2014-04-24 20:15:00
3:35 PM,51.8,46.8,83,29.66,7.0,SE,4.6,-,0.01,Rain,Light Rain,140,2014-04-24 20:35:00
3:55 PM,51.4,47.3,86,29.66,5.0,SSE,4.6,-,0.01,,Drizzle,150,2014-04-24 20:55:00
4:15 PM,51.3,48.0,89,29.67,3.0,Calm,Calm,-,0.03,Rain,Rain,0,2014-04-24 21:15:00
4:35 PM,50.9,48.6,92,29.66,3.0,Calm,Calm,-,0.05,,Drizzle,0,2014-04-24 21:35:00
4:55 PM,50.9,48.7,92,29.68,3.0,Calm,Calm,-,0.06,,Drizzle,0,2014-04-24 21:55:00
5:15 PM,50.9,49.1,94,29.68,2.0,Calm,Calm,-,0.03,Rain,Rain,0,2014-04-24 22:15:00
5:35 PM,51.3,49.1,92,29.67,3.0,Calm,Calm,-,0.06,Rain,Light Rain,0,2014-04-24 22:35:00
5:55 PM,51.4,49.1,92,29.67,5.0,Calm,Calm,-,0.07,Rain,Light Rain,0,2014-04-24 22:55:00
6:15 PM,51.4,49.1,92,29.67,5.0,Calm,Calm,-,0.01,Rain,Rain,0,2014-04-24 23:15:00
6:35 PM,51.3,49.1,92,29.68,5.0,Calm,Calm,-,0.02,Rain,Rain,0,2014-04-24 23:35:00
6:55 PM,50.9,49.1,94,29.67,3.0,Calm,Calm,-,0.05,Rain,Light Rain,0,2014-04-24 23:55:00
7:15 PM,50.9,49.1,94,29.65,4.0,Calm,Calm,-,0.02,Rain,Light Rain,0,2014-04-25 00:15:00
7:35 PM,50.7,49.1,94,29.66,5.0,Calm,Calm,-,0.02,,Drizzle,0,2014-04-25 00:35:00
7:55 PM,50.7,49.1,94,29.67,4.0,Calm,Calm,-,0.03,,Overcast,0,2014-04-25 00:55:00
8:15 PM,50.5,48.9,94,29.68,5.0,West,6.9,-,N/A,,Overcast,280,2014-04-25 01:15:00
8:35 PM,50.4,48.0,92,29.68,7.0,WNW,4.6,-,N/A,,Overcast,290,2014-04-25 01:35:00
8:55 PM,50.2,47.5,90,29.69,7.0,WNW,4.6,-,N/A,,Overcast,300,2014-04-25 01:55:00
9:15 PM,50.0,47.1,90,29.70,7.0,WNW,3.5,-,N/A,,Overcast,290,2014-04-25 02:15:00
9:35 PM,49.1,46.8,92,29.71,7.0,WNW,5.8,-,N/A,,Overcast,290,2014-04-25 02:35:00
9:55 PM,49.1,45.9,89,29.71,7.0,WNW,8.1,-,N/A,,Mostly Cloudy,290,2014-04-25 02:55:00
10:15 PM,48.7,45.0,87,29.71,10.0,WNW,8.1,-,N/A,,Mostly Cloudy,290,2014-04-25 03:15:00
10:35 PM,48.4,44.4,86,29.72,10.0,WNW,9.2,-,N/A,,Mostly Cloudy,300,2014-04-25 03:35:00
10:55 PM,48.0,43.7,85,29.72,10.0,WNW,11.5,-,N/A,,Mostly Cloudy,300,2014-04-25 03:55:00
11:15 PM,47.3,42.1,82,29.72,10.0,WNW,12.7,19.6,N/A,,Scattered Clouds,300,2014-04-25 04:15:00
11:35 PM,46.9,41.9,83,29.73,10.0,WNW,6.9,-,N/A,,Mostly Cloudy,300,2014-04-25 04:35:00
11:55 PM,46.4,41.0,81,29.73,10.0,WNW,10.4,16.1,N/A,,Mostly Cloudy,300,2014-04-25 04:55:00